Time,TemperatureF,DewpointF,PressureIn,WindDirection,WindDirectionDegrees,WindSpeedMPH,WindSpeedGustMPH,Humidity,HourlyPrecipIn,Conditions,Clouds,dailyrainin,SoftwareType,DateUTC
2013-03-14 00:04:00,29.8,13.0,30.47,SSW,200,0.0,-999.0,49,-99.99,,,0.00,weatherlink.com 1.10,2013-03-14 06:04:00,
2013-03-14 00:19:00,30.2,13.0,30.46,SW,219,3.0,-999.0,49,-99.99,,,0.00,weatherlink.com 1.10,2013-03-14 06:19:00,
2013-03-14 00:34:00,30.4,13.0,30.46,WNW,288,1.0,-999.0,48,-99.99,,,0.00,weatherlink.com 1.10,2013-03-14 06:34:00,
2013-03-14 00:49:00,29.7,13.0,30.45,WSW,244,2.0,-999.0,50,-99.99,,,0.00,weatherlink.com 1.10,2013-03-14 06:49:00,
2013-03-14 01:04:00,29.6,13.0,30.45,ESE,105,2.0,-999.0,50,-99.99,,,0.00,weatherlink.com 1.10,2013-03-14 07:04:00,
2013-03-14 01:19:00,29.7,12.0,30.46,WSW,250,0.0,-999.0,48,-99.99,,,0.00,weatherlink.com 1.10,2013-03-14 07:19:00,
2013-03-14 01:34:00,29.7,12.0,30.46,ESE,120,2.0,-999.0,48,-99.99,,,0.00,weatherlink.com 1.10,2013-03-14 07:34:00,
2013-03-14 01:49:00,29.1,12.0,30.46,ESE,123,1.0,-999.0,49,-99.99,,,0.00,weatherlink.com 1.10,2013-03-14 07:49:00,
2013-03-14 02:04:00,28.7,12.0,30.47,SW,230,0.0,-999.0,50,-99.99,,,0.00,weatherlink.com 1.10,2013-03-14 08:04:00,
2013-03-14 02:19:00,28.4,11.0,30.46,SW,228,1.0,-999.0,49,-99.99,,,0.00,weatherlink.com 1.10,2013-03-14 08:19:00,
2013-03-14 02:34:00,28.1,12.0,30.46,ESE,111,0.0,-999.0,51,-99.99,,,0.00,weatherlink.com 1.10,2013-03-14 08:34:00,
2013-03-14 02:49:00,27.7,12.0,30.46,ESE,111,0.0,-999.0,51,-99.99,,,0.00,weatherlink.com 1.10,2013-03-14 08:49:00,
2013-03-14 03:04:00,28.1,12.0,30.45,SSW,204,0.0,-999.0,51,-99.99,,,0.00,weatherlink.com 1.10,2013-03-14 09:04:00,
2013-03-14 03:19:00,29.4,13.0,30.44,West,264,0.0,-999.0,51,-99.99,,,0.00,weatherlink.com 1.10,2013-03-14 09:19:00,
2013-03-14 03:34:00,29.3,13.0,30.44,WNW,288,0.0,-999.0,51,-99.99,,,0.00,weatherlink.com 1.10,2013-03-14 09:34:00,
2013-03-14 03:49:00,30.4,13.0,30.43,South,184,1.0,-999.0,49,-99.99,,,0.00,weatherlink.com 1.10,2013-03-14 09:49:00,
2013-03-14 04:04:00,29.5,13.0,30.42,WNW,291,0.0,-999.0,50,-99.99,,,0.00,weatherlink.com 1.10,2013-03-14 10:04:00,
2013-03-14 04:19:00,28.9,13.0,30.42,WNW,291,0.0,-999.0,51,-99.99,,,0.00,weatherlink.com 1.10,2013-03-14 10:19:00,
2013-03-14 04:34:00,27.6,12.0,30.41,West,262,0.0,-999.0,53,-99.99,,,0.00,weatherlink.com 1.10,2013-03-14 10:34:00,
2013-03-14 04:49:00,28.0,14.0,30.41,ENE,74,0.0,-999.0,55,-99.99,,,0.00,weatherlink.com 1.10,2013-03-14 10:49:00,
2013-03-14 05:04:00,27.7,13.0,30.41,North,9,0.0,-999.0,54,-99.99,,,0.00,weatherlink.com 1.10,2013-03-14 11:04:00,
2013-03-14 05:19:00,27.0,13.0,30.40,NE,51,0.0,-999.0,57,-99.99,,,0.00,weatherlink.com 1.10,2013-03-14 11:19:00,
2013-03-14 05:34:00,26.4,13.0,30.41,NE,51,0.0,-999.0,58,-99.99,,,0.00,weatherlink.com 1.10,2013-03-14 11:34:00,
2013-03-14 05:49:00,26.2,14.0,30.42,NE,51,0.0,-999.0,60,-99.99,,,0.00,weatherlink.com 1.10,2013-03-14 11:49:00,
2013-03-14 06:04:00,26.1,14.0,30.43,NE,48,0.0,-999.0,61,-99.99,,,0.00,weatherlink.com 1.10,2013-03-14 12:04:00,
2013-03-14 06:19:00,25.8,14.0,30.44,West,261,0.0,-999.0,61,-99.99,,,0.00,weatherlink.com 1.10,2013-03-14 12:19:00,
2013-03-14 06:34:00,26.3,14.0,30.45,SSW,195,4.0,-999.0,61,-99.99,,,0.00,weatherlink.com 1.10,2013-03-14 12:34:00,
2013-03-14 06:49:00,29.0,15.0,30.44,SSW,202,0.0,-999.0,55,-99.99,,,0.00,weatherlink.com 1.10,2013-03-14 12:49:00,
2013-03-14 07:04:00,29.0,15.0,30.45,SSW,202,0.0,-999.0,56,-99.99,,,0.00,weatherlink.com 1.10,2013-03-14 13:04:00,
2013-03-14 07:19:00,29.1,15.0,30.46,ENE,78,0.0,-999.0,55,-99.99,,,0.00,weatherlink.com 1.10,2013-03-14 13:19:00,
2013-03-14 07:49:00,27.6,14.0,30.45,ENE,78,0.0,-999.0,57,-99.99,,,0.00,weatherlink.com 1.10,2013-03-14 13:49:00,
2013-03-14 08:04:00,27.5,14.0,30.46,ENE,78,2.0,-999.0,57,-99.99,,,0.00,weatherlink.com 1.10,2013-03-14 14:04:00,
2013-03-14 08:19:00,28.2,14.0,30.46,SSW,199,0.0,-999.0,55,-99.99,,,0.00,weatherlink.com 1.10,2013-03-14 14:19:00,
2013-03-14 08:34:00,30.0,13.0,30.47,SW,218,2.0,-999.0,50,-99.99,,,0.00,weatherlink.com 1.10,2013-03-14 14:34:00,
2013-03-14 08:49:00,33.0,13.0,30.47,WNW,284,2.0,-999.0,44,-99.99,,,0.00,weatherlink.com 1.10,2013-03-14 14:49:00,
2013-03-14 09:04:00,34.4,14.0,30.47,West,261,0.0,-999.0,43,-99.99,,,0.00,weatherlink.com 1.10,2013-03-14 15:04:00,
2013-03-14 09:19:00,35.5,15.0,30.48,WNW,295,5.0,-999.0,43,-99.99,,,0.00,weatherlink.com 1.10,2013-03-14 15:19:00,
2013-03-14 09:34:00,36.9,11.0,30.47,ENE,67,3.0,-999.0,35,-99.99,,,0.00,weatherlink.com 1.10,2013-03-14 15:34:00,
2013-03-14 09:49:00,39.2,11.0,30.48,NNE,23,5.0,-999.0,32,-99.99,,,0.00,weatherlink.com 1.10,2013-03-14 15:49:00,
2013-03-14 10:04:00,39.7,16.0,30.47,SSW,196,2.0,-999.0,38,-99.99,,,0.00,weatherlink.com 1.10,2013-03-14 16:04:00,
2013-03-14 10:19:00,39.6,15.0,30.46,NNE,31,0.0,-999.0,37,-99.99,,,0.00,weatherlink.com 1.10,2013-03-14 16:19:00,
2013-03-14 10:34:00,40.5,11.0,30.46,NNE,15,2.0,-999.0,30,-99.99,,,0.00,weatherlink.com 1.10,2013-03-14 16:34:00,
2013-03-14 10:49:00,41.5,10.0,30.46,SSE,157,2.0,-999.0,28,-99.99,,,0.00,weatherlink.com 1.10,2013-03-14 16:49:00,
2013-03-14 11:04:00,42.4,12.0,30.45,East,96,4.0,-999.0,29,-99.99,,,0.00,weatherlink.com 1.10,2013-03-14 17:04:00,
2013-03-14 11:19:00,43.0,12.0,30.45,NE,51,5.0,-999.0,28,-99.99,,,0.00,weatherlink.com 1.10,2013-03-14 17:19:00,
2013-03-14 11:34:00,42.9,12.0,30.44,East,90,6.0,-999.0,28,-99.99,,,0.00,weatherlink.com 1.10,2013-03-14 17:34:00,
2013-03-14 11:49:00,43.1,11.0,30.44,West,269,5.0,-999.0,27,-99.99,,,0.00,weatherlink.com 1.10,2013-03-14 17:49:00,
2013-03-14 12:04:00,43.7,12.0,30.45,SE,127,3.0,-999.0,27,-99.99,,,0.00,weatherlink.com 1.10,2013-03-14 18:04:00,
2013-03-14 12:19:00,44.3,12.0,30.44,SSW,195,0.0,-999.0,27,-99.99,,,0.00,weatherlink.com 1.10,2013-03-14 18:19:00,
2013-03-14 12:34:00,44.7,11.0,30.43,SSW,204,3.0,-999.0,25,-99.99,,,0.00,weatherlink.com 1.10,2013-03-14 18:34:00,
2013-03-14 12:49:00,45.0,10.0,30.43,NW,304,5.0,-999.0,24,-99.99,,,0.00,weatherlink.com 1.10,2013-03-14 18:49:00,
2013-03-14 13:04:00,45.6,11.0,30.43,SSW,209,5.0,-999.0,24,-99.99,,,0.00,weatherlink.com 1.10,2013-03-14 19:04:00,
2013-03-14 13:19:00,46.6,11.0,30.42,ESE,117,2.0,-999.0,24,-99.99,,,0.00,weatherlink.com 1.10,2013-03-14 19:19:00,
2013-03-14 13:34:00,47.4,11.0,30.40,ESE,113,0.0,-999.0,23,-99.99,,,0.00,weatherlink.com 1.10,2013-03-14 19:34:00,
2013-03-14 13:49:00,47.1,10.0,30.39,East,94,2.0,-999.0,22,-99.99,,,0.00,weatherlink.com 1.10,2013-03-14 19:49:00,
2013-03-14 14:04:00,46.8,12.0,30.39,SSE,163,3.0,-999.0,24,-99.99,,,0.00,weatherlink.com 1.10,2013-03-14 20:04:00,
2013-03-14 14:19:00,47.1,12.0,30.38,South,186,5.0,-999.0,24,-99.99,,,0.00,weatherlink.com 1.10,2013-03-14 20:19:00,
2013-03-14 14:34:00,47.9,12.0,30.37,ENE,71,1.0,-999.0,23,-99.99,,,0.00,weatherlink.com 1.10,2013-03-14 20:34:00,
2013-03-14 14:49:00,47.3,10.0,30.36,SSW,209,2.0,-999.0,22,-99.99,,,0.00,weatherlink.com 1.10,2013-03-14 20:49:00,
2013-03-14 15:04:00,47.1,10.0,30.37,ENE,76,0.0,-999.0,22,-99.99,,,0.00,weatherlink.com 1.10,2013-03-14 21:04:00,
2013-03-14 15:34:00,47.7,11.0,30.36,ESE,117,0.0,-999.0,23,-99.99,,,0.00,weatherlink.com 1.10,2013-03-14 21:34:00,
2013-03-14 15:49:00,46.5,10.0,30.34,West,275,2.0,-999.0,23,-99.99,,,0.00,weatherlink.com 1.10,2013-03-14 21:49:00,
2013-03-14 16:04:00,46.5,11.0,30.35,SSW,192,1.0,-999.0,24,-99.99,,,0.00,weatherlink.com 1.10,2013-03-14 22:04:00,
2013-03-14 16:19:00,46.2,11.0,30.35,South,188,4.0,-999.0,24,-99.99,,,0.00,weatherlink.com 1.10,2013-03-14 22:19:00,
2013-03-14 16:34:00,45.6,12.0,30.33,SW,215,2.0,-999.0,25,-99.99,,,0.00,weatherlink.com 1.10,2013-03-14 22:34:00,
2013-03-14 16:49:00,45.0,13.0,30.34,ESE,119,1.0,-999.0,27,-99.99,,,0.00,weatherlink.com 1.10,2013-03-14 22:49:00,
2013-03-14 17:04:00,45.0,11.0,30.33,ENE,68,0.0,-999.0,25,-99.99,,,0.00,weatherlink.com 1.10,2013-03-14 23:04:00,
2013-03-14 17:19:00,44.7,12.0,30.32,ESE,119,1.0,-999.0,26,-99.99,,,0.00,weatherlink.com 1.10,2013-03-14 23:19:00,
2013-03-14 17:34:00,44.2,14.0,30.33,SE,126,0.0,-999.0,29,-99.99,,,0.00,weatherlink.com 1.10,2013-03-14 23:34:00,
2013-03-14 17:49:00,43.4,14.0,30.33,ESE,110,1.0,-999.0,31,-99.99,,,0.00,weatherlink.com 1.10,2013-03-14 23:49:00,
2013-03-14 18:04:00,42.5,16.0,30.33,East,89,0.0,-999.0,35,-99.99,,,0.00,weatherlink.com 1.10,2013-03-15 00:04:00,
2013-03-14 18:19:00,41.9,14.0,30.33,ENE,76,4.0,-999.0,32,-99.99,,,0.00,weatherlink.com 1.10,2013-03-15 00:19:00,
2013-03-14 18:34:00,41.2,13.0,30.33,SE,142,1.0,-999.0,31,-99.99,,,0.00,weatherlink.com 1.10,2013-03-15 00:34:00,
2013-03-14 18:49:00,40.2,11.0,30.34,ESE,111,0.0,-999.0,30,-99.99,,,0.00,weatherlink.com 1.10,2013-03-15 00:49:00,
2013-03-14 19:04:00,38.8,12.0,30.34,ESE,111,2.0,-999.0,34,-99.99,,,0.00,weatherlink.com 1.10,2013-03-15 01:04:00,
2013-03-14 19:19:00,37.2,11.0,30.35,ESE,111,0.0,-999.0,34,-99.99,,,0.00,weatherlink.com 1.10,2013-03-15 01:19:00,
2013-03-14 19:34:00,36.0,11.0,30.35,ESE,109,1.0,-999.0,36,-99.99,,,0.00,weatherlink.com 1.10,2013-03-15 01:34:00,
2013-03-14 19:49:00,35.4,16.0,30.35,ESE,109,0.0,-999.0,45,-99.99,,,0.00,weatherlink.com 1.10,2013-03-15 01:49:00,
2013-03-14 20:04:00,34.3,14.0,30.35,ESE,109,1.0,-999.0,43,-99.99,,,0.00,weatherlink.com 1.10,2013-03-15 02:04:00,
2013-03-14 20:19:00,33.5,14.0,30.34,ESE,110,0.0,-999.0,45,-99.99,,,0.00,weatherlink.com 1.10,2013-03-15 02:19:00,
2013-03-14 20:34:00,33.3,13.0,30.34,ESE,110,0.0,-999.0,43,-99.99,,,0.00,weatherlink.com 1.10,2013-03-15 02:34:00,
2013-03-14 20:49:00,32.7,13.0,30.34,ESE,110,0.0,-999.0,45,-99.99,,,0.00,weatherlink.com 1.10,2013-03-15 02:49:00,
2013-03-14 21:04:00,32.3,13.0,30.34,ESE,110,0.0,-999.0,45,-99.99,,,0.00,weatherlink.com 1.10,2013-03-15 03:04:00,
2013-03-14 21:19:00,31.9,12.0,30.35,ESE,110,0.0,-999.0,44,-99.99,,,0.00,weatherlink.com 1.10,2013-03-15 03:19:00,
2013-03-14 21:34:00,31.1,12.0,30.35,ESE,110,0.0,-999.0,46,-99.99,,,0.00,weatherlink.com 1.10,2013-03-15 03:34:00,
2013-03-14 21:49:00,30.1,12.0,30.35,ESE,110,0.0,-999.0,48,-99.99,,,0.00,weatherlink.com 1.10,2013-03-15 03:49:00,
2013-03-14 22:04:00,30.4,12.0,30.35,ESE,110,0.0,-999.0,47,-99.99,,,0.00,weatherlink.com 1.10,2013-03-15 04:04:00,
2013-03-14 22:19:00,30.1,12.0,30.35,ESE,110,0.0,-999.0,47,-99.99,,,0.00,weatherlink.com 1.10,2013-03-15 04:19:00,
2013-03-14 22:34:00,29.5,13.0,30.36,ESE,110,0.0,-999.0,50,-99.99,,,0.00,weatherlink.com 1.10,2013-03-15 04:34:00,
2013-03-14 22:49:00,29.7,13.0,30.35,ESE,110,0.0,-999.0,50,-99.99,,,0.00,weatherlink.com 1.10,2013-03-15 04:49:00,
2013-03-14 23:04:00,29.2,12.0,30.35,ESE,110,0.0,-999.0,49,-99.99,,,0.00,weatherlink.com 1.10,2013-03-15 05:04:00,
2013-03-14 23:19:00,27.9,12.0,30.34,ESE,110,0.0,-999.0,52,-99.99,,,0.00,weatherlink.com 1.10,2013-03-15 05:19:00,
2013-03-14 23:34:00,27.4,12.0,30.34,ESE,110,0.0,-999.0,53,-99.99,,,0.00,weatherlink.com 1.10,2013-03-15 05:34:00,
2013-03-14 23:49:00,27.0,12.0,30.34,ESE,110,0.0,-999.0,54,-99.99,,,0.00,weatherlink.com 1.10,2013-03-15 05:49:00,